Time,TemperatureF,DewpointF,PressureIn,WindDirection,WindDirectionDegrees,WindSpeedMPH,WindSpeedGustMPH,Humidity,HourlyPrecipIn,Conditions,Clouds,dailyrainin,SoftwareType,DateUTC
2013-04-05 00:02:00,31.0,26.0,30.05,ESE,105,8.0,-999.0,83,-99.99,,,-99.99,,2013-04-05 05:02:00,
2013-04-05 00:12:00,31.0,26.0,30.05,ESE,105,8.0,-999.0,83,-99.99,,,-99.99,,2013-04-05 05:12:00,
2013-04-05 00:22:00,31.0,26.0,30.05,ESE,116,9.0,-999.0,83,-99.99,,,-99.99,,2013-04-05 05:22:00,
2013-04-05 00:32:00,31.0,26.0,30.05,ESE,114,9.0,-999.0,82,-99.99,,,-99.99,,2013-04-05 05:32:00,
2013-04-05 00:42:00,31.0,26.0,30.05,ESE,114,9.0,-999.0,82,-99.99,,,-99.99,,2013-04-05 05:42:00,
2013-04-05 00:52:00,30.0,25.0,30.05,ESE,107,7.0,-999.0,83,-99.99,,,-99.99,,2013-04-05 05:52:00,
2013-04-05 01:02:00,30.0,25.0,30.04,ESE,111,7.0,-999.0,83,-99.99,,,-99.99,,2013-04-05 06:02:00,
2013-04-05 01:12:00,30.0,25.0,30.04,ESE,111,7.0,-999.0,83,-99.99,,,-99.99,,2013-04-05 06:12:00,
2013-04-05 01:22:00,30.0,25.0,30.03,ESE,105,8.0,-999.0,83,-99.99,,,-99.99,,2013-04-05 06:22:00,
2013-04-05 01:32:00,30.0,25.0,30.03,ESE,112,8.0,-999.0,83,-99.99,,,-99.99,,2013-04-05 06:32:00,
2013-04-05 01:42:00,30.0,25.0,30.03,ESE,112,8.0,-999.0,83,-99.99,,,-99.99,,2013-04-05 06:42:00,
2013-04-05 01:52:00,30.0,25.0,30.02,East,99,7.0,-999.0,82,-99.99,,,-99.99,,2013-04-05 06:52:00,
2013-04-05 02:02:00,30.0,25.0,30.02,ESE,113,8.0,-999.0,82,-99.99,,,-99.99,,2013-04-05 07:02:00,
2013-04-05 02:12:00,30.0,25.0,30.02,ESE,113,8.0,-999.0,82,-99.99,,,-99.99,,2013-04-05 07:12:00,
2013-04-05 02:22:00,30.0,25.0,30.02,ESE,115,8.0,-999.0,82,-99.99,,,-99.99,,2013-04-05 07:22:00,
2013-04-05 02:32:00,30.0,25.0,30.01,ESE,105,7.0,-999.0,83,-99.99,,,-99.99,,2013-04-05 07:32:00,
2013-04-05 02:42:00,30.0,25.0,30.01,ESE,105,7.0,-999.0,83,-99.99,,,-99.99,,2013-04-05 07:42:00,
2013-04-05 02:52:00,30.0,25.0,30.00,ESE,103,6.0,-999.0,83,-99.99,,,-99.99,,2013-04-05 07:52:00,
2013-04-05 03:02:00,31.0,27.0,29.99,ESE,113,7.0,-999.0,84,-99.99,,,-99.99,,2013-04-05 08:02:00,
2013-04-05 03:12:00,31.0,27.0,29.99,ESE,113,7.0,-999.0,84,-99.99,,,-99.99,,2013-04-05 08:12:00,
2013-04-05 03:22:00,31.0,26.0,29.98,ESE,117,9.0,-999.0,83,-99.99,,,-99.99,,2013-04-05 08:22:00,
2013-04-05 03:32:00,31.0,26.0,29.98,ESE,121,9.0,-999.0,83,-99.99,,,-99.99,,2013-04-05 08:32:00,
2013-04-05 03:42:00,31.0,26.0,29.98,ESE,121,9.0,-999.0,83,-99.99,,,-99.99,,2013-04-05 08:42:00,
2013-04-05 03:52:00,31.0,26.0,29.96,ESE,119,10.0,-999.0,82,-99.99,,,-99.99,,2013-04-05 08:52:00,
2013-04-05 04:02:00,31.0,26.0,29.96,ESE,121,10.0,-999.0,82,-99.99,,,-99.99,,2013-04-05 09:02:00,
2013-04-05 04:12:00,31.0,26.0,29.96,ESE,121,10.0,-999.0,82,-99.99,,,-99.99,,2013-04-05 09:12:00,
2013-04-05 04:22:00,32.0,27.0,29.96,ESE,121,9.0,-999.0,82,-99.99,,,-99.99,,2013-04-05 09:22:00,
2013-04-05 04:33:00,32.0,27.0,29.95,ESE,120,9.0,-999.0,82,-99.99,,,-99.99,,2013-04-05 09:33:00,
2013-04-05 04:42:00,32.0,27.0,29.95,ESE,120,9.0,-999.0,82,-99.99,,,-99.99,,2013-04-05 09:42:00,
2013-04-05 04:53:00,32.0,27.0,29.94,ESE,117,9.0,-999.0,82,-99.99,,,-99.99,,2013-04-05 09:53:00,
2013-04-05 05:02:00,32.0,27.0,29.93,ESE,119,9.0,-999.0,83,-99.99,,,-99.99,,2013-04-05 10:02:00,
2013-04-05 05:13:00,32.0,27.0,29.93,ESE,119,9.0,-999.0,83,-99.99,,,-99.99,,2013-04-05 10:13:00,
2013-04-05 05:23:00,32.0,27.0,29.91,ESE,121,9.0,-999.0,82,-99.99,,,-99.99,,2013-04-05 10:23:00,
2013-04-05 05:32:00,32.0,27.0,29.90,ESE,117,10.0,-999.0,82,-99.99,,,-99.99,,2013-04-05 10:32:00,
2013-04-05 05:42:00,32.0,27.0,29.90,ESE,117,10.0,-999.0,82,-99.99,,,-99.99,,2013-04-05 10:42:00,
2013-04-05 05:53:00,32.0,27.0,29.89,ESE,117,10.0,-999.0,82,-99.99,,,-99.99,,2013-04-05 10:53:00,
2013-04-05 06:02:00,32.0,27.0,29.89,ESE,120,10.0,-999.0,82,-99.99,,,-99.99,,2013-04-05 11:02:00,
2013-04-05 06:12:00,32.0,27.0,29.89,ESE,120,10.0,-999.0,82,-99.99,,,-99.99,,2013-04-05 11:12:00,
2013-04-05 06:22:00,32.0,27.0,29.88,SE,125,11.0,-999.0,83,-99.99,,,-99.99,,2013-04-05 11:22:00,
2013-04-05 06:32:00,32.0,27.0,29.87,ESE,122,10.0,-999.0,83,-99.99,,,-99.99,,2013-04-05 11:32:00,
2013-04-05 06:42:00,32.0,27.0,29.87,ESE,122,10.0,-999.0,83,-99.99,,,-99.99,,2013-04-05 11:42:00,
2013-04-05 06:52:00,32.0,27.0,29.86,ESE,117,10.0,-999.0,83,-99.99,,,-99.99,,2013-04-05 11:52:00,
2013-04-05 07:02:00,32.0,28.0,29.86,ESE,121,8.0,-999.0,84,-99.99,,,-99.99,,2013-04-05 12:02:00,
2013-04-05 07:12:00,32.0,28.0,29.86,ESE,121,8.0,-999.0,84,-99.99,,,-99.99,,2013-04-05 12:12:00,
2013-04-05 07:22:00,32.0,28.0,29.85,ESE,123,10.0,-999.0,84,-99.99,,,-99.99,,2013-04-05 12:22:00,
2013-04-05 07:32:00,32.0,28.0,29.84,SE,129,8.0,-999.0,84,-99.99,,,-99.99,,2013-04-05 12:32:00,
2013-04-05 07:42:00,32.0,28.0,29.84,SE,129,8.0,-999.0,84,-99.99,,,-99.99,,2013-04-05 12:42:00,
2013-04-05 07:52:00,33.0,29.0,29.84,SE,140,11.0,-999.0,84,-99.99,,,-99.99,,2013-04-05 12:52:00,
2013-04-05 08:02:00,33.0,28.0,29.83,SE,130,12.0,-999.0,82,-99.99,,,-99.99,,2013-04-05 13:02:00,
2013-04-05 08:12:00,33.0,28.0,29.83,SE,130,12.0,-999.0,82,-99.99,,,-99.99,,2013-04-05 13:12:00,
2013-04-05 08:22:00,34.0,29.0,29.83,SE,128,12.0,-999.0,81,-99.99,,,-99.99,,2013-04-05 13:22:00,
2013-04-05 08:32:00,34.0,29.0,29.83,SE,137,13.0,-999.0,81,-99.99,,,-99.99,,2013-04-05 13:32:00,
2013-04-05 08:42:00,34.0,29.0,29.83,SE,137,13.0,-999.0,81,-99.99,,,-99.99,,2013-04-05 13:42:00,
2013-04-05 08:52:00,34.0,29.0,29.81,SE,136,14.0,-999.0,81,-99.99,,,-99.99,,2013-04-05 13:52:00,
2013-04-05 09:03:00,34.0,29.0,29.80,SE,131,15.0,-999.0,81,-99.99,,,-99.99,,2013-04-05 14:03:00,
2013-04-05 09:12:00,34.0,29.0,29.80,SE,131,15.0,-999.0,81,-99.99,,,-99.99,,2013-04-05 14:12:00,
2013-04-05 09:22:00,34.0,29.0,29.80,SE,138,17.0,-999.0,81,-99.99,,,-99.99,,2013-04-05 14:22:00,
2013-04-05 09:36:00,34.0,28.0,29.80,SE,136,16.0,-999.0,80,-99.99,,,-99.99,,2013-04-05 14:36:00,
2013-04-05 09:42:00,34.0,28.0,29.80,SE,136,16.0,-999.0,80,-99.99,,,-99.99,,2013-04-05 14:42:00,
2013-04-05 09:54:00,34.0,28.0,29.80,SE,136,16.0,-999.0,80,-99.99,,,-99.99,,2013-04-05 14:54:00,
2013-04-05 10:02:00,35.0,29.0,29.78,SE,146,18.0,-999.0,79,-99.99,,,-99.99,,2013-04-05 15:02:00,
2013-04-05 10:12:00,35.0,29.0,29.78,SE,146,18.0,-999.0,79,-99.99,,,-99.99,,2013-04-05 15:12:00,
2013-04-05 10:23:00,35.0,29.0,29.78,SSE,158,18.0,-999.0,79,-99.99,,,-99.99,,2013-04-05 15:23:00,
2013-04-05 10:33:00,35.0,29.0,29.77,SSE,148,19.0,-999.0,79,-99.99,,,-99.99,,2013-04-05 15:33:00,
2013-04-05 10:42:00,35.0,29.0,29.77,SSE,148,19.0,-999.0,79,-99.99,,,-99.99,,2013-04-05 15:42:00,
2013-04-05 10:53:00,35.0,29.0,29.76,SSE,156,17.0,-999.0,80,-99.99,,,-99.99,,2013-04-05 15:53:00,
2013-04-05 11:02:00,36.0,30.0,29.75,SE,138,17.0,-999.0,79,-99.99,,,-99.99,,2013-04-05 16:02:00,
2013-04-05 11:13:00,36.0,30.0,29.75,SE,138,17.0,-999.0,79,-99.99,,,-99.99,,2013-04-05 16:13:00,
2013-04-05 11:23:00,36.0,30.0,29.75,SSE,155,16.0,-999.0,79,-99.99,,,-99.99,,2013-04-05 16:23:00,
2013-04-05 11:33:00,36.0,30.0,29.75,SSE,155,16.0,-999.0,79,-99.99,,,-99.99,,2013-04-05 16:33:00,
2013-04-05 11:42:00,36.0,30.0,29.75,SSE,155,16.0,-999.0,79,-99.99,,,-99.99,,2013-04-05 16:42:00,
2013-04-05 11:53:00,37.0,31.0,29.75,SE,138,14.0,-999.0,78,-99.99,,,-99.99,,2013-04-05 16:53:00,
2013-04-05 12:03:00,39.0,32.0,29.75,SSE,160,13.0,-999.0,76,-99.99,,,-99.99,,2013-04-05 17:03:00,
2013-04-05 12:13:00,39.0,32.0,29.75,SSE,160,13.0,-999.0,76,-99.99,,,-99.99,,2013-04-05 17:13:00,
2013-04-05 12:23:00,41.0,33.0,29.74,SSE,163,14.0,-999.0,72,-99.99,,,-99.99,,2013-04-05 17:23:00,
2013-04-05 12:32:00,42.0,33.0,29.73,SE,144,13.0,-999.0,71,-99.99,,,-99.99,,2013-04-05 17:32:00,
2013-04-05 12:45:00,42.0,33.0,29.73,SE,144,13.0,-999.0,71,-99.99,,,-99.99,,2013-04-05 17:45:00,
2013-04-05 12:52:00,43.0,34.0,29.72,SSE,165,15.0,-999.0,69,-99.99,,,-99.99,,2013-04-05 17:52:00,
2013-04-05 13:02:00,44.0,34.0,29.71,SSE,156,14.0,-999.0,68,-99.99,,,-99.99,,2013-04-05 18:02:00,
2013-04-05 13:12:00,44.0,34.0,29.71,SSE,156,14.0,-999.0,68,-99.99,,,-99.99,,2013-04-05 18:12:00,
2013-04-05 13:22:00,45.0,34.0,29.70,SE,141,14.0,-999.0,66,-99.99,,,-99.99,,2013-04-05 18:22:00,
2013-04-05 13:32:00,47.0,35.0,29.70,SSE,150,11.0,-999.0,64,-99.99,,,-99.99,,2013-04-05 18:32:00,
2013-04-05 13:42:00,47.0,35.0,29.70,SSE,150,11.0,-999.0,64,-99.99,,,-99.99,,2013-04-05 18:42:00,
2013-04-05 13:53:00,48.0,36.0,29.69,SE,144,14.0,-999.0,63,-99.99,,,-99.99,,2013-04-05 18:53:00,
2013-04-05 14:02:00,49.0,37.0,29.68,South,173,12.0,-999.0,62,-99.99,,,-99.99,,2013-04-05 19:02:00,
2013-04-05 14:13:00,49.0,37.0,29.68,South,173,12.0,-999.0,62,-99.99,,,-99.99,,2013-04-05 19:13:00,
2013-04-05 14:22:00,50.0,37.0,29.68,SSE,158,12.0,-999.0,60,-99.99,,,-99.99,,2013-04-05 19:22:00,
2013-04-05 14:33:00,50.0,37.0,29.68,SSE,158,12.0,-999.0,60,-99.99,,,-99.99,,2013-04-05 19:33:00,
2013-04-05 14:42:00,50.0,37.0,29.68,SSE,158,12.0,-999.0,60,-99.99,,,-99.99,,2013-04-05 19:42:00,
2013-04-05 14:52:00,50.0,37.0,29.68,SSE,158,12.0,-999.0,60,-99.99,,,-99.99,,2013-04-05 19:52:00,
2013-04-05 15:02:00,50.0,37.0,29.68,SSE,158,12.0,-999.0,60,-99.99,,,-99.99,,2013-04-05 20:02:00,
2013-04-05 15:22:00,53.0,38.0,29.67,SE,138,11.0,-999.0,56,-99.99,,,-99.99,,2013-04-05 20:22:00,
2013-04-05 15:33:00,53.0,38.0,29.67,SE,138,11.0,-999.0,56,-99.99,,,-99.99,,2013-04-05 20:33:00,
2013-04-05 15:42:00,53.0,38.0,29.67,SE,138,11.0,-999.0,56,-99.99,,,-99.99,,2013-04-05 20:42:00,
2013-04-05 15:53:00,55.0,38.0,29.66,SSE,159,9.0,-999.0,53,-99.99,,,-99.99,,2013-04-05 20:53:00,
2013-04-05 16:02:00,56.0,40.0,29.65,SSE,163,9.0,-999.0,54,-99.99,,,-99.99,,2013-04-05 21:02:00,
2013-04-05 16:12:00,56.0,40.0,29.65,SSE,163,9.0,-999.0,54,-99.99,,,-99.99,,2013-04-05 21:12:00,
2013-04-05 16:23:00,57.0,40.0,29.64,SE,140,8.0,-999.0,52,-99.99,,,-99.99,,2013-04-05 21:23:00,
2013-04-05 16:33:00,58.0,39.0,29.63,SE,132,7.0,-999.0,50,-99.99,,,-99.99,,2013-04-05 21:33:00,
2013-04-05 16:43:00,58.0,39.0,29.63,SE,132,7.0,-999.0,50,-99.99,,,-99.99,,2013-04-05 21:43:00,
2013-04-05 16:54:00,57.0,39.0,29.63,SSE,150,7.0,-999.0,51,-99.99,,,-99.99,,2013-04-05 21:54:00,
2013-04-05 17:03:00,58.0,39.0,29.63,SE,142,6.0,-999.0,50,-99.99,,,-99.99,,2013-04-05 22:03:00,
2013-04-05 17:13:00,58.0,39.0,29.63,SE,142,6.0,-999.0,50,-99.99,,,-99.99,,2013-04-05 22:13:00,
2013-04-05 17:23:00,59.0,40.0,29.62,ESE,111,5.0,-999.0,49,-99.99,,,-99.99,,2013-04-05 22:23:00,
2013-04-05 17:33:00,59.0,41.0,29.62,SSE,148,6.0,-999.0,51,-99.99,,,-99.99,,2013-04-05 22:33:00,
2013-04-05 17:43:00,59.0,41.0,29.62,SSE,148,6.0,-999.0,51,-99.99,,,-99.99,,2013-04-05 22:43:00,
2013-04-05 17:53:00,60.0,40.0,29.62,SE,146,6.0,-999.0,48,-99.99,,,-99.99,,2013-04-05 22:53:00,
2013-04-05 18:02:00,59.0,40.0,29.61,SE,125,4.0,-999.0,50,-99.99,,,-99.99,,2013-04-05 23:02:00,
2013-04-05 18:12:00,59.0,40.0,29.61,SE,125,4.0,-999.0,50,-99.99,,,-99.99,,2013-04-05 23:12:00,
2013-04-05 18:22:00,59.0,41.0,29.61,SE,128,6.0,-999.0,52,-99.99,,,-99.99,,2013-04-05 23:22:00,
2013-04-05 18:32:00,58.0,42.0,29.61,SE,127,4.0,-999.0,55,-99.99,,,-99.99,,2013-04-05 23:32:00,
2013-04-05 18:42:00,58.0,42.0,29.61,SE,127,4.0,-999.0,55,-99.99,,,-99.99,,2013-04-05 23:42:00,
2013-04-05 18:53:00,57.0,42.0,29.62,SE,126,1.0,-999.0,58,-99.99,,,-99.99,,2013-04-05 23:53:00,
2013-04-05 19:02:00,57.0,43.0,29.62,SE,126,0.0,-999.0,60,-99.99,,,-99.99,,2013-04-06 00:02:00,
2013-04-05 19:12:00,57.0,43.0,29.62,SE,126,0.0,-999.0,60,-99.99,,,-99.99,,2013-04-06 00:12:00,
2013-04-05 19:22:00,56.0,43.0,29.62,SE,126,0.0,-999.0,61,-99.99,,,-99.99,,2013-04-06 00:22:00,
2013-04-05 19:32:00,55.0,43.0,29.62,SE,126,0.0,-999.0,63,-99.99,,,-99.99,,2013-04-06 00:32:00,
2013-04-05 19:42:00,55.0,43.0,29.62,SE,126,0.0,-999.0,63,-99.99,,,-99.99,,2013-04-06 00:42:00,
2013-04-05 19:52:00,54.0,42.0,29.62,SE,126,0.0,-999.0,64,-99.99,,,-99.99,,2013-04-06 00:52:00,
2013-04-05 20:02:00,54.0,42.0,29.62,SE,126,0.0,-999.0,64,-99.99,,,-99.99,,2013-04-06 01:02:00,
2013-04-05 20:12:00,54.0,42.0,29.62,SE,126,0.0,-999.0,64,-99.99,,,-99.99,,2013-04-06 01:12:00,
2013-04-05 20:22:00,53.0,42.0,29.62,SE,126,0.0,-999.0,65,-99.99,,,-99.99,,2013-04-06 01:22:00,
2013-04-05 20:32:00,51.0,40.0,29.62,SE,126,0.0,-999.0,66,-99.99,,,-99.99,,2013-04-06 01:32:00,
2013-04-05 20:42:00,51.0,40.0,29.62,SE,126,0.0,-999.0,66,-99.99,,,-99.99,,2013-04-06 01:42:00,
2013-04-05 20:53:00,50.0,40.0,29.62,SE,126,0.0,-999.0,69,-99.99,,,-99.99,,2013-04-06 01:53:00,
2013-04-05 21:02:00,49.0,40.0,29.62,SE,126,0.0,-999.0,70,-99.99,,,-99.99,,2013-04-06 02:02:00,
2013-04-05 21:12:00,49.0,40.0,29.62,SE,126,0.0,-999.0,70,-99.99,,,-99.99,,2013-04-06 02:12:00,
2013-04-05 21:22:00,47.0,38.0,29.62,SE,126,0.0,-999.0,72,-99.99,,,-99.99,,2013-04-06 02:22:00,
2013-04-05 21:32:00,46.0,38.0,29.62,SE,126,0.0,-999.0,73,-99.99,,,-99.99,,2013-04-06 02:32:00,
2013-04-05 21:42:00,46.0,38.0,29.62,SE,126,0.0,-999.0,73,-99.99,,,-99.99,,2013-04-06 02:42:00,
2013-04-05 21:52:00,45.0,38.0,29.62,SE,126,0.0,-999.0,76,-99.99,,,-99.99,,2013-04-06 02:52:00,
2013-04-05 22:02:00,43.0,37.0,29.63,SE,126,0.0,-999.0,78,-99.99,,,-99.99,,2013-04-06 03:02:00,
2013-04-05 22:12:00,43.0,37.0,29.63,SE,126,0.0,-999.0,78,-99.99,,,-99.99,,2013-04-06 03:12:00,
2013-04-05 22:22:00,42.0,37.0,29.64,SE,126,0.0,-999.0,82,-99.99,,,-99.99,,2013-04-06 03:22:00,
2013-04-05 22:33:00,42.0,37.0,29.63,SE,126,0.0,-999.0,81,-99.99,,,-99.99,,2013-04-06 03:33:00,
2013-04-05 22:42:00,42.0,37.0,29.63,SE,126,0.0,-999.0,81,-99.99,,,-99.99,,2013-04-06 03:42:00,
2013-04-05 22:54:00,41.0,37.0,29.64,SE,126,0.0,-999.0,84,-99.99,,,-99.99,,2013-04-06 03:54:00,
2013-04-05 23:03:00,41.0,37.0,29.64,SE,126,0.0,-999.0,85,-99.99,,,-99.99,,2013-04-06 04:03:00,
2013-04-05 23:13:00,41.0,37.0,29.64,SE,126,0.0,-999.0,85,-99.99,,,-99.99,,2013-04-06 04:13:00,
2013-04-05 23:23:00,40.0,36.0,29.65,SE,126,0.0,-999.0,85,-99.99,,,-99.99,,2013-04-06 04:23:00,
2013-04-05 23:32:00,40.0,36.0,29.65,SE,126,0.0,-999.0,86,-99.99,,,-99.99,,2013-04-06 04:32:00,
2013-04-05 23:42:00,40.0,36.0,29.65,SE,126,0.0,-999.0,86,-99.99,,,-99.99,,2013-04-06 04:42:00,
2013-04-05 23:53:00,40.0,36.0,29.65,SE,126,0.0,-999.0,86,-99.99,,,-99.99,,2013-04-06 04:53:00,